QPF
0.00 0.00 0.00 0.00 0.00 0.00 0.00 0.00 0.00 0.00 0.00 0.00 0.00 0.00 0.01 0.01 0.01 0.01 0.00 0.00 0.00 0.01 0.00 0.00 0.01 0.02 0.02 0.02 0.01 0.01 0.01 0.01 0.01 0.02 0.03 0.04 0.04 0.04 0.04 0.03 0.02 0.02 0.01 0.00
0.00 0.00 0.00 0.00 0.00 0.00 0.00 0.00 0.00 0.00 0.00 0.00 0.00 0.00 0.00 0.01 0.01 0.01 0.01 0.00 0.00 0.01 0.00 0.00 0.00 0.01 0.02 0.02 0.01 0.01 0.01 0.01 0.01 0.01 0.01 0.02 0.03 0.05 0.05 0.04 0.03 0.02 0.02 0.01
0.01 0.01 0.01 0.00 0.00 0.01 0.00 0.00 0.00 0.00 0.00 0.00 0.00 0.00 0.00 0.00 0.00 0.00 0.00 0.00 0.01 0.01 0.01 0.01 0.00 0.01 0.01 0.02 0.01 0.01 0.01 0.01 0.01 0.01 0.01 0.01 0.02 0.03 0.03 0.03 0.03 0.02 0.03 0.03
0.01 0.01 0.01 0.00 0.00 0.01 0.01 0.01 0.01 0.01 0.00 0.00 0.00 0.00 0.00 0.00 0.00 0.00 0.00 0.00 0.00 0.00 0.01 0.01 0.01 0.01 0.01 0.01 0.01 0.01 0.01 0.01 0.01 0.01 0.01 0.01 0.01 0.02 0.03 0.04 0.03 0.03 0.03 0.03
0.00 0.00 0.00 0.00 0.00 0.00 0.01 0.01 0.00 0.00 0.00 0.00 0.00 0.00 0.00 0.00 0.00 0.00 0.00 0.00 0.01 0.01 0.01 0.01 0.01 0.01 0.01 0.01 0.01 0.01 0.01 0.01 0.01 0.02 0.02 0.01 0.00 0.01 0.03 0.04 0.04 0.04 0.03 0.03
0.00 0.00 0.00 0.00 0.00 0.01 0.01 0.01 0.00 0.01 0.01 0.01 0.00 0.00 0.00 0.00 0.00 0.00 0.00 0.00 0.01 0.01 0.01 0.01 0.01 0.01 0.01 0.00 0.01 0.01 0.01 0.02 0.02 0.01 0.01 0.01 0.01 0.01 0.01 0.03 0.05 0.06 0.06 0.04
0.00 0.00 0.00 0.00 0.01 0.01 0.02 0.02 0.02 0.01 0.01 0.01 0.01 0.00 0.00 0.00 0.00 0.00 0.00 0.00 0.00 0.00 0.00 0.01 0.00 0.01 0.01 0.01 0.01 0.01 0.01 0.02 0.02 0.01 0.01 0.01 0.02 0.01 0.01 0.02 0.03 0.06 0.06 0.05
0.00 0.00 0.01 0.01 0.02 0.02 0.02 0.02 0.01 0.00 0.00 0.00 0.00 0.00 0.00 0.00 0.00 0.00 0.00 0.00 0.00 0.00 0.00 0.00 0.01 0.01 0.01 0.01 0.01 0.02 0.02 0.02 0.02 0.01 0.01 0.02 0.02 0.02 0.01 0.02 0.02 0.04 0.04 0.04
0.00 0.00 0.01 0.01 0.02 0.02 0.02 0.02 0.01 0.00 0.00 0.00 0.00 0.00 0.00 0.00 0.00 0.00 0.00 0.00 0.00 0.00 0.00 0.00 0.01 0.01 0.01 0.01 0.01 0.02 0.02 0.02 0.02 0.02 0.02 0.02 0.02 0.02 0.02 0.02 0.02 0.02 0.03 0.04
0.00 0.00 0.00 0.01 0.02 0.02 0.02 0.01 0.01 0.01 0.00 0.00 0.00 0.00 0.00 0.00 0.00 0.00 0.00 0.00 0.00 0.00 0.00 0.00 0.00 0.00 0.00 0.01 0.01 0.01 0.02 0.02 0.02 0.02 0.03 0.03 0.03 0.03 0.02 0.02 0.01 0.01 0.02 0.03
0.00 0.00 0.00 0.01 0.01 0.03 0.04 0.03 0.02 0.02 0.01 0.01 0.01 0.00 0.00 0.00 0.00 0.00 0.00 0.00 0.00 0.00 0.00 0.00 0.00 0.00 0.00 0.00 0.01 0.01 0.01 0.02 0.02 0.02 0.02 0.03 0.04 0.03 0.03 0.02 0.02 0.01 0.01 0.02
0.00 0.00 0.01 0.01 0.01 0.02 0.04 0.04 0.04 0.04 0.04 0.03 0.03 0.02 0.01 0.01 0.00 0.00 0.01 0.01 0.01 0.00 0.00 0.00 0.00 0.00 0.00 0.00 0.00 0.01 0.01 0.01 0.02 0.02 0.01 0.01 0.02 0.03 0.03 0.03 0.03 0.02 0.02 0.02
0.00 0.00 0.01 0.01 0.02 0.02 0.02 0.03 0.03 0.03 0.03 0.02 0.02 0.03 0.03 0.03 0.02 0.01 0.01 0.01 0.01 0.00 0.00 0.00 0.00 0.00 0.00 0.00 0.00 0.01 0.01 0.01 0.01 0.02 0.02 0.02 0.01 0.01 0.01 0.02 0.02 0.02 0.02 0.02
0.01 0.01 0.01 0.01 0.01 0.01 0.01 0.00 0.01 0.01 0.01 0.02 0.02 0.02 0.03 0.03 0.02 0.02 0.02 0.01 0.01 0.01 0.00 0.00 0.00 0.00 0.00 0.00 0.00 0.01 0.01 0.01 0.02 0.02 0.02 0.02 0.02 0.01 0.01 0.00 0.00 0.01 0.01 0.01
0.01 0.01 0.01 0.01 0.00 0.00 0.00 0.01 0.01 0.01 0.01 0.01 0.02 0.03 0.03 0.02 0.01 0.01 0.01 0.01 0.01 0.01 0.01 0.01 0.01 0.01 0.01 0.01 0.01 0.01 0.01 0.02 0.02 0.03 0.03 0.02 0.02 0.02 0.01 0.01 0.01 0.01 0.01 0.01
0.01 0.01 0.00 0.00 0.00 0.01 0.01 0.01 0.02 0.02 0.01 0.02 0.03 0.02 0.02 0.01 0.01 0.00 0.00 0.00 0.00 0.01 0.01 0.01 0.01 0.01 0.01 0.01 0.01 0.01 0.02 0.03 0.03 0.03 0.03 0.03 0.02 0.02 0.02 0.01 0.01 0.01 0.02 0.01
0.00 0.01 0.01 0.01 0.01 0.01 0.01 0.01 0.02 0.02 0.02 0.02 0.01 0.01 0.01 0.01 0.01 0.01 0.00 0.00 0.00 0.00 0.01 0.01 0.01 0.01 0.01 0.01 0.01 0.02 0.03 0.03 0.03 0.03 0.03 0.04 0.03 0.02 0.02 0.01 0.01 0.02 0.02 0.02
0.01 0.01 0.01 0.01 0.01 0.01 0.01 0.01 0.02 0.05 0.05 0.04 0.02 0.02 0.01 0.01 0.01 0.01 0.01 0.01 0.01 0.01 0.01 0.01 0.01 0.01 0.01 0.01 0.02 0.02 0.02 0.03 0.03 0.04 0.04 0.04 0.04 0.03 0.03 0.03 0.03 0.02 0.02 0.02
0.01 0.01 0.01 0.01 0.01 0.02 0.02 0.02 0.03 0.05 0.05 0.04 0.03 0.04 0.03 0.02 0.01 0.01 0.01 0.01 0.02 0.02 0.02 0.02 0.02 0.01 0.01 0.01 0.01 0.01 0.02 0.03 0.03 0.03 0.04 0.04 0.05 0.05 0.05 0.04 0.03 0.03 0.02 0.02
0.01 0.01 0.01 0.01 0.01 0.01 0.01 0.01 0.03 0.04 0.05 0.05 0.06 0.06 0.05 0.02 0.02 0.03 0.03 0.02 0.03 0.03 0.03 0.03 0.03 0.02 0.02 0.02 0.01 0.02 0.02 0.03 0.04 0.03 0.03 0.03 0.04 0.04 0.04 0.04 0.03 0.03 0.03 0.02
0.01 0.01 0.01 0.01 0.01 0.01 0.01 0.01 0.02 0.04 0.05 0.05 0.05 0.05 0.04 0.03 0.03 0.04 0.04 0.03 0.02 0.02 0.04 0.04 0.04 0.02 0.02 0.02 0.02 0.02 0.03 0.04 0.05 0.04 0.04 0.04 0.04 0.03 0.03 0.03 0.03 0.02 0.02 0.02
0.01 0.01 0.01 0.01 0.01 0.01 0.01 0.01 0.01 0.02 0.03 0.03 0.03 0.04 0.04 0.05 0.04 0.03 0.02 0.02 0.02 0.03 0.04 0.04 0.04 0.03 0.02 0.02 0.02 0.02 0.03 0.04 0.05 0.05 0.04 0.04 0.05 0.05 0.03 0.03 0.03 0.03 0.03 0.02
0.01 0.01 0.01 0.01 0.01 0.01 0.01 0.01 0.01 0.02 0.02 0.03 0.03 0.03 0.03 0.04 0.04 0.03 0.03 0.03 0.03 0.03 0.03 0.02 0.03 0.04 0.03 0.02 0.02 0.02 0.02 0.03 0.04 0.04 0.04 0.04 0.05 0.05 0.05 0.04 0.03 0.03 0.03 0.03
0.01 0.01 0.01 0.01 0.01 0.01 0.01 0.01 0.01 0.01 0.02 0.02 0.02 0.02 0.03 0.03 0.03 0.03 0.04 0.04 0.04 0.05 0.03 0.02 0.03 0.04 0.03 0.02 0.02 0.02 0.03 0.03 0.03 0.03 0.03 0.04 0.06 0.07 0.07 0.06 0.05 0.04 0.04 0.05
0.02 0.02 0.02 0.02 0.01 0.01 0.01 0.01 0.01 0.01 0.01 0.01 0.01 0.02 0.02 0.02 0.03 0.03 0.03 0.03 0.03 0.03 0.04 0.04 0.04 0.04 0.03 0.02 0.02 0.02 0.03 0.03 0.04 0.04 0.04 0.05 0.07 0.07 0.07 0.06 0.06 0.05 0.05 0.05
0.02 0.02 0.01 0.01 0.01 0.01 0.00 0.00 0.01 0.01 0.01 0.01 0.02 0.02 0.02 0.02 0.02 0.02 0.02 0.03 0.03 0.03 0.03 0.05 0.06 0.06 0.04 0.02 0.02 0.02 0.02 0.03 0.04 0.05 0.05 0.06 0.08 0.08 0.08 0.08 0.07 0.07 0.06 0.06
0.01 0.01 0.01 0.01 0.01 0.01 0.00 0.00 0.00 0.01 0.01 0.01 0.02 0.02 0.01 0.01 0.02 0.02 0.02 0.03 0.04 0.05 0.05 0.06 0.06 0.06 0.05 0.05 0.05 0.04 0.04 0.05 0.05 0.06 0.06 0.07 0.08 0.09 0.10 0.10 0.10 0.09 0.08 0.08
MSLP
1018.65 1019.14 1019.65 1020.12 1020.51 1020.78 1020.87 1020.77 1020.46 1019.98 1019.35 1018.65 1017.92 1017.24 1016.66 1016.20 1015.88 1015.68 1015.59 1015.58 1015.62 1015.70 1015.82 1015.98 1016.19 1016.49 1016.88 1017.38 1017.98 1018.66 1019.41 1020.17 1020.93 1021.65 1022.31 1022.89 1023.39 1023.82 1024.19 1024.50 1024.78 1025.03 1025.26 1025.48
1018.78 1019.15 1019.49 1019.76 1019.94 1019.99 1019.90 1019.67 1019.30 1018.84 1018.31 1017.75 1017.22 1016.75 1016.37 1016.07 1015.86 1015.72 1015.63 1015.58 1015.55 1015.54 1015.57 1015.67 1015.84 1016.13 1016.54 1017.07 1017.72 1018.46 1019.26 1020.08 1020.89 1021.65 1022.35 1022.97 1023.51 1023.98 1024.38 1024.73 1025.03 1025.30 1025.54 1025.76
1019.02 1019.26 1019.43 1019.50 1019.47 1019.33 1019.07 1018.72 1018.29 1017.83 1017.37 1016.93 1016.56 1016.26 1016.03 1015.86 1015.75 1015.66 1015.57 1015.49 1015.41 1015.34 1015.32 1015.37 1015.53 1015.81 1016.23 1016.79 1017.47 1018.25 1019.08 1019.93 1020.76 1021.56 1022.29 1022.94 1023.52 1024.03 1024.48 1024.87 1025.21 1025.52 1025.78 1026.02
1019.36 1019.46 1019.46 1019.36 1019.15 1018.83 1018.42 1017.96 1017.47 1016.99 1016.56 1016.20 1015.93 1015.73 1015.61 1015.54 1015.49 1015.44 1015.38 1015.29 1015.20 1015.11 1015.07 1015.11 1015.26 1015.55 1015.98 1016.56 1017.25 1018.03 1018.87 1019.73 1020.57 1021.38 1022.12 1022.81 1023.42 1023.98 1024.48 1024.92 1025.31 1025.66 1025.96 1026.22
1019.73 1019.70 1019.57 1019.32 1018.95 1018.49 1017.96 1017.40 1016.84 1016.33 1015.90 1015.57 1015.34 1015.20 1015.14 1015.12 1015.12 1015.11 1015.07 1015.01 1014.93 1014.87 1014.85 1014.91 1015.08 1015.38 1015.82 1016.39 1017.08 1017.85 1018.66 1019.50 1020.33 1021.12 1021.87 1022.58 1023.22 1023.82 1024.37 1024.86 1025.31 1025.71 1026.05 1026.35
1020.04 1019.92 1019.68 1019.32 1018.85 1018.29 1017.67 1017.03 1016.42 1015.86 1015.40 1015.06 1014.83 1014.70 1014.66 1014.66 1014.69 1014.71 1014.71 1014.69 1014.66 1014.65 1014.68 1014.78 1014.99 1015.31 1015.75 1016.31 1016.97 1017.70 1018.48 1019.27 1020.06 1020.83 1021.57 1022.27 1022.94 1023.57 1024.15 1024.70 1025.19 1025.64 1026.02 1026.35
1020.22 1020.03 1019.73 1019.31 1018.79 1018.18 1017.51 1016.83 1016.18 1015.59 1015.09 1014.72 1014.46 1014.31 1014.26 1014.26 1014.30 1014.34 1014.38 1014.42 1014.45 1014.50 1014.59 1014.75 1014.99 1015.33 1015.77 1016.31 1016.93 1017.60 1018.32 1019.05 1019.79 1020.51 1021.23 1021.92 1022.59 1023.23 1023.84 1024.42 1024.95 1025.42 1025.83 1026.19
1020.21 1019.99 1019.67 1019.25 1018.72 1018.12 1017.45 1016.77 1016.11 1015.50 1014.99 1014.58 1014.28 1014.10 1014.02 1014.00 1014.03 1014.09 1014.17 1014.25 1014.34 1014.45 1014.61 1014.81 1015.08 1015.43 1015.85 1016.35 1016.91 1017.52 1018.16 1018.82 1019.50 1020.17 1020.85 1021.52 1022.18 1022.82 1023.44 1024.02 1024.56 1025.05 1025.47 1025.84
1020.00 1019.78 1019.48 1019.09 1018.62 1018.07 1017.46 1016.82 1016.19 1015.60 1015.08 1014.65 1014.33 1014.11 1013.99 1013.94 1013.96 1014.02 1014.11 1014.22 1014.35 1014.51 1014.69 1014.92 1015.20 1015.53 1015.92 1016.37 1016.86 1017.40 1017.96 1018.56 1019.17 1019.79 1020.43 1021.07 1021.71 1022.33 1022.94 1023.51 1024.04 1024.51 1024.93 1025.30
1019.60 1019.40 1019.15 1018.84 1018.45 1018.00 1017.48 1016.93 1016.37 1015.83 1015.34 1014.91 1014.57 1014.33 1014.17 1014.10 1014.09 1014.13 1014.21 1014.33 1014.46 1014.63 1014.81 1015.04 1015.29 1015.59 1015.92 1016.30 1016.73 1017.19 1017.68 1018.21 1018.76 1019.34 1019.94 1020.55 1021.16 1021.76 1022.34 1022.88 1023.38 1023.84 1024.24 1024.59
1019.08 1018.91 1018.72 1018.49 1018.22 1017.88 1017.49 1017.06 1016.60 1016.13 1015.69 1015.30 1014.96 1014.70 1014.52 1014.41 1014.36 1014.37 1014.42 1014.51 1014.62 1014.76 1014.91 1015.09 1015.30 1015.53 1015.80 1016.10 1016.45 1016.84 1017.27 1017.74 1018.25 1018.79 1019.36 1019.94 1020.52 1021.09 1021.64 1022.15 1022.61 1023.03 1023.40 1023.74
1018.51 1018.36 1018.23 1018.09 1017.92 1017.70 1017.44 1017.14 1016.79 1016.43 1016.06 1015.71 1015.40 1015.14 1014.94 1014.80 1014.71 1014.68 1014.68 1014.71 1014.77 1014.85 1014.94 1015.05 1015.17 1015.33 1015.52 1015.75 1016.02 1016.35 1016.72 1017.15 1017.62 1018.14 1018.68 1019.23 1019.79 1020.33 1020.84 1021.31 1021.74 1022.13 1022.47 1022.80
1017.97 1017.83 1017.73 1017.65 1017.58 1017.47 1017.33 1017.14 1016.91 1016.64 1016.36 1016.07 1015.79 1015.55 1015.34 1015.17 1015.05 1014.96 1014.91 1014.88 1014.87 1014.87 1014.88 1014.90 1014.95 1015.02 1015.12 1015.27 1015.48 1015.75 1016.08 1016.47 1016.91 1017.40 1017.92 1018.46 1018.99 1019.50 1019.98 1020.42 1020.82 1021.17 1021.50 1021.81
1017.51 1017.36 1017.28 1017.24 1017.23 1017.20 1017.15 1017.06 1016.92 1016.74 1016.53 1016.30 1016.07 1015.84 1015.64 1015.46 1015.31 1015.19 1015.08 1014.99 1014.91 1014.83 1014.76 1014.71 1014.67 1014.65 1014.68 1014.76 1014.91 1015.12 1015.41 1015.76 1016.18 1016.65 1017.14 1017.65 1018.16 1018.64 1019.08 1019.49 1019.86 1020.19 1020.50 1020.80
1017.17 1017.00 1016.92 1016.90 1016.91 1016.93 1016.94 1016.91 1016.84 1016.73 1016.58 1016.40 1016.21 1016.02 1015.83 1015.65 1015.49 1015.34 1015.20 1015.07 1014.93 1014.79 1014.66 1014.53 1014.42 1014.34 1014.30 1014.32 1014.41 1014.57 1014.81 1015.13 1015.51 1015.93 1016.40 1016.87 1017.34 1017.78 1018.19 1018.56 1018.90 1019.21 1019.50 1019.80
1016.97 1016.78 1016.68 1016.66 1016.67 1016.71 1016.74 1016.74 1016.71 1016.64 1016.53 1016.40 1016.25 1016.09 1015.92 1015.77 1015.61 1015.46 1015.31 1015.15 1014.99 1014.81 1014.63 1014.46 1014.29 1014.16 1014.07 1014.03 1014.07 1014.18 1014.37 1014.63 1014.96 1015.34 1015.74 1016.16 1016.58 1016.97 1017.33 1017.66 1017.96 1018.24 1018.51 1018.79
1016.90 1016.70 1016.59 1016.55 1016.55 1016.58 1016.60 1016.61 1016.59 1016.54 1016.46 1016.36 1016.24 1016.11 1015.97 1015.84 1015.71 1015.58 1015.43 1015.28 1015.11 1014.92 1014.73 1014.53 1014.34 1014.17 1014.03 1013.95 1013.94 1013.99 1014.12 1014.32 1014.58 1014.88 1015.21 1015.55 1015.89 1016.21 1016.51 1016.78 1017.04 1017.28 1017.52 1017.78
1016.95 1016.75 1016.63 1016.57 1016.56 1016.57 1016.57 1016.57 1016.54 1016.49 1016.42 1016.33 1016.23 1016.13 1016.02 1015.92 1015.82 1015.71 1015.59 1015.46 1015.30 1015.13 1014.93 1014.73 1014.52 1014.33 1014.17 1014.05 1013.98 1013.98 1014.04 1014.16 1014.33 1014.54 1014.78 1015.02 1015.27 1015.50 1015.72 1015.93 1016.12 1016.31 1016.52 1016.75
1017.06 1016.89 1016.78 1016.72 1016.69 1016.67 1016.65 1016.62 1016.57 1016.50 1016.43 1016.34 1016.25 1016.16 1016.08 1016.00 1015.93 1015.85 1015.75 1015.64 1015.51 1015.35 1015.16 1014.96 1014.76 1014.55 1014.37 1014.21 1014.10 1014.04 1014.03 1014.06 1014.14 1014.25 1014.38 1014.52 1014.67 1014.80 1014.93 1015.06 1015.19 1015.32 1015.48 1015.66
1017.20 1017.07 1016.98 1016.92 1016.88 1016.84 1016.79 1016.73 1016.65 1016.56 1016.47 1016.37 1016.27 1016.18 1016.11 1016.04 1015.97 1015.91 1015.83 1015.73 1015.61 1015.46 1015.29 1015.09 1014.88 1014.67 1014.47 1014.29 1014.13 1014.01 1013.93 1013.89 1013.88 1013.89 1013.92 1013.96 1014.00 1014.05 1014.09 1014.14 1014.20 1014.28 1014.38 1014.51
1017.30 1017.22 1017.16 1017.11 1017.06 1017.00 1016.93 1016.83 1016.72 1016.60 1016.47 1016.34 1016.23 1016.12 1016.03 1015.95 1015.87 1015.80 1015.71 1015.61 1015.49 1015.33 1015.16 1014.96 1014.75 1014.53 1014.31 1014.10 1013.91 1013.75 1013.62 1013.51 1013.42 1013.36 1013.30 1013.26 1013.22 1013.18 1013.15 1013.14 1013.14 1013.16 1013.21 1013.30
1017.33 1017.29 1017.25 1017.21 1017.15 1017.07 1016.96 1016.83 1016.68 1016.52 1016.35 1016.18 1016.03 1015.88 1015.75 1015.64 1015.53 1015.42 1015.30 1015.17 1015.02 1014.85 1014.66 1014.45 1014.22 1013.99 1013.76 1013.54 1013.33 1013.14 1012.97 1012.82 1012.68 1012.56 1012.45 1012.34 1012.24 1012.15 1012.07 1012.00 1011.96 1011.94 1011.96 1012.02
1017.25 1017.23 1017.20 1017.15 1017.07 1016.96 1016.82 1016.65 1016.45 1016.24 1016.02 1015.81 1015.60 1015.40 1015.22 1015.04 1014.88 1014.71 1014.54 1014.36 1014.17 1013.96 1013.74 1013.51 1013.26 1013.02 1012.78 1012.55 1012.34 1012.14 1011.95 1011.78 1011.62 1011.47 1011.32 1011.18 1011.05 1010.93 1010.82 1010.73 1010.66 1010.63 1010.63 1010.67
1017.04 1017.03 1016.99 1016.91 1016.80 1016.64 1016.45 1016.23 1015.98 1015.72 1015.44 1015.17 1014.90 1014.64 1014.39 1014.15 1013.92 1013.68 1013.45 1013.20 1012.95 1012.70 1012.44 1012.17 1011.91 1011.66 1011.41 1011.18 1010.97 1010.77 1010.59 1010.42 1010.26 1010.10 1009.95 1009.80 1009.66 1009.53 1009.41 1009.31 1009.24 1009.20 1009.20 1009.24
1016.74 1016.69 1016.61 1016.49 1016.32 1016.11 1015.86 1015.57 1015.27 1014.94 1014.61 1014.28 1013.94 1013.62 1013.30 1012.99 1012.68 1012.38 1012.07 1011.76 1011.46 1011.15 1010.85 1010.55 1010.27 1010.01 1009.77 1009.54 1009.34 1009.16 1008.99 1008.83 1008.68 1008.53 1008.38 1008.24 1008.10 1007.97 1007.86 1007.77 1007.70 1007.67 1007.68 1007.73
1016.34 1016.24 1016.10 1015.91 1015.67 1015.38 1015.06 1014.72 1014.34 1013.96 1013.57 1013.17 1012.78 1012.40 1012.02 1011.64 1011.26 1010.89 1010.52 1010.15 1009.79 1009.43 1009.09 1008.78 1008.48 1008.21 1007.97 1007.75 1007.56 1007.39 1007.24 1007.10 1006.96 1006.83 1006.69 1006.56 1006.43 1006.30 1006.20 1006.12 1006.06 1006.04 1006.07 1006.14
1015.89 1015.72 1015.49 1015.22 1014.89 1014.53 1014.13 1013.71 1013.28 1012.83 1012.38 1011.93 1011.49 1011.05 1010.61 1010.17 1009.73 1009.30 1008.88 1008.45 1008.04 1007.65 1007.28 1006.94 1006.63 1006.35 1006.11 1005.91 1005.73 1005.57 1005.44 1005.31 1005.18 1005.06 1004.93 1004.80 1004.67 1004.56 1004.45 1004.38 1004.33 1004.32 1004.36 1004.45
Thickness
5653 5658 5658 5658 5659 5656 5650 5646 5641 5649 5652 5663 5667 5668 5669 5670 5670 5670 5670 5671 5672 5672 5672 5672 5673 5673 5673 5673 5672 5672 5671 5669 5669 5668 5667 5666 5664 5663 5661 5660 5659 5658 5656 5656
5648 5654 5652 5652 5657 5655 5653 5652 5649 5651 5654 5665 5665 5663 5663 5663 5663 5663 5665 5666 5667 5667 5667 5667 5667 5668 5668 5668 5668 5667 5666 5665 5665 5664 5663 5662 5661 5659 5657 5656 5655 5654 5653 5652
5630 5638 5644 5641 5655 5655 5655 5655 5651 5646 5654 5658 5656 5657 5657 5657 5658 5658 5660 5661 5661 5662 5662 5662 5663 5663 5663 5663 5663 5662 5662 5661 5660 5659 5658 5657 5656 5654 5653 5652 5651 5650 5648 5648
5618 5628 5626 5646 5659 5658 5653 5651 5651 5651 5652 5652 5653 5654 5654 5653 5652 5652 5654 5655 5656 5656 5656 5657 5658 5659 5659 5658 5657 5656 5656 5656 5655 5654 5653 5652 5651 5649 5648 5647 5645 5645 5644 5643
5607 5612 5622 5642 5652 5650 5645 5643 5647 5645 5646 5646 5647 5647 5646 5648 5648 5648 5649 5649 5650 5650 5651 5650 5651 5652 5651 5651 5650 5650 5650 5650 5650 5649 5647 5646 5645 5644 5643 5641 5640 5639 5639 5638
5602 5607 5611 5637 5649 5650 5644 5633 5643 5641 5638 5637 5638 5629 5634 5642 5642 5642 5643 5643 5643 5643 5643 5643 5644 5644 5643 5643 5643 5643 5644 5645 5645 5644 5642 5641 5640 5639 5638 5636 5635 5634 5633 5633
5597 5598 5613 5634 5639 5642 5624 5626 5637 5636 5634 5631 5628 5629 5633 5635 5635 5635 5635 5635 5635 5634 5634 5635 5636 5636 5636 5636 5637 5639 5639 5639 5639 5638 5637 5637 5635 5633 5631 5630 5629 5628 5627 5627
5590 5591 5606 5628 5627 5623 5623 5629 5630 5629 5628 5626 5625 5626 5626 5626 5626 5626 5626 5626 5626 5625 5625 5627 5627 5628 5628 5629 5632 5632 5632 5631 5631 5631 5631 5631 5628 5626 5625 5623 5621 5621 5620 5620
5599 5605 5614 5618 5619 5622 5622 5621 5622 5621 5621 5620 5617 5617 5617 5617 5617 5617 5617 5617 5617 5616 5617 5618 5619 5619 5620 5623 5623 5624 5624 5623 5623 5624 5623 5623 5621 5620 5618 5616 5615 5614 5613 5613
5595 5604 5609 5611 5612 5614 5615 5615 5616 5615 5614 5612 5610 5609 5608 5607 5607 5607 5607 5608 5607 5607 5607 5609 5610 5611 5612 5614 5614 5615 5615 5615 5616 5616 5616 5616 5615 5613 5611 5610 5609 5608 5608 5608
5590 5598 5602 5607 5607 5607 5607 5608 5607 5607 5606 5604 5603 5601 5601 5600 5599 5599 5599 5598 5598 5597 5598 5600 5602 5604 5605 5605 5605 5605 5605 5607 5607 5608 5608 5607 5607 5607 5607 5607 5606 5605 5605 5604
5589 5596 5593 5598 5602 5601 5599 5599 5598 5597 5596 5596 5595 5593 5593 5592 5591 5591 5590 5590 5589 5589 5590 5592 5593 5595 5597 5597 5597 5596 5596 5597 5598 5598 5599 5599 5599 5599 5601 5601 5601 5601 5601 5600
5592 5594 5591 5593 5593 5593 5591 5592 5591 5589 5588 5587 5587 5586 5585 5584 5583 5583 5583 5582 5582 5582 5583 5584 5585 5586 5588 5588 5588 5588 5588 5589 5589 5590 5590 5590 5590 5590 5591 5592 5592 5592 5592 5592
5584 5583 5582 5583 5583 5584 5583 5583 5582 5581 5580 5579 5577 5577 5576 5576 5575 5575 5575 5575 5575 5575 5575 5575 5576 5577 5579 5578 5578 5579 5579 5581 5581 5581 5581 5582 5582 5582 5582 5582 5582 5582 5583 5583
5577 5575 5574 5575 5575 5574 5573 5572 5571 5570 5569 5569 5568 5568 5568 5567 5567 5568 5568 5567 5567 5566 5567 5567 5567 5569 5570 5569 5569 5570 5570 5570 5571 5572 5572 5573 5573 5573 5573 5573 5573 5574 5573 5573
5568 5567 5566 5565 5565 5564 5564 5563 5561 5560 5560 5560 5559 5559 5559 5559 5559 5559 5559 5558 5557 5557 5558 5558 5559 5560 5561 5560 5560 5560 5560 5562 5562 5561 5562 5562 5562 5562 5563 5563 5563 5564 5564 5564
5557 5557 5557 5556 5556 5555 5554 5554 5553 5552 5550 5550 5550 5550 5550 5549 5549 5549 5549 5549 5548 5548 5548 5549 5550 5551 5551 5551 5550 5550 5551 5551 5552 5552 5552 5553 5553 5553 5554 5554 5554 5554 5555 5556
5552 5551 5550 5549 5548 5546 5546 5545 5543 5542 5540 5540 5540 5539 5539 5538 5537 5538 5538 5538 5538 5539 5539 5539 5540 5541 5541 5541 5541 5541 5540 5541 5541 5542 5542 5543 5543 5544 5544 5544 5545 5545 5546 5545
5543 5543 5542 5541 5540 5538 5537 5535 5534 5532 5531 5530 5529 5528 5527 5527 5526 5526 5527 5527 5527 5527 5528 5528 5530 5530 5530 5531 5531 5531 5531 5531 5532 5532 5533 5534 5534 5535 5535 5535 5535 5536 5536 5536
5534 5534 5533 5531 5531 5529 5527 5526 5524 5522 5521 5520 5519 5518 5517 5516 5515 5515 5516 5515 5515 5515 5517 5518 5519 5519 5520 5521 5521 5521 5521 5521 5521 5522 5523 5523 5524 5526 5526 5526 5526 5526 5526 5526
5523 5523 5522 5521 5520 5519 5517 5515 5514 5512 5511 5510 5508 5507 5506 5504 5503 5503 5503 5504 5505 5505 5506 5509 5509 5509 5510 5511 5511 5510 5511 5511 5511 5512 5513 5514 5514 5515 5516 5517 5517 5516 5516 5516
5512 5511 5511 5510 5509 5507 5506 5504 5503 5502 5501 5499 5498 5497 5495 5493 5493 5492 5492 5492 5494 5495 5496 5497 5497 5499 5500 5499 5499 5499 5499 5500 5501 5502 5503 5504 5504 5505 5506 5506 5506 5506 5506 5506
5501 5500 5500 5499 5497 5496 5495 5493 5492 5491 5490 5489 5487 5486 5484 5483 5481 5480 5481 5483 5483 5485 5485 5485 5487 5489 5490 5488 5487 5488 5488 5488 5489 5491 5492 5493 5494 5495 5495 5496 5495 5496 5496 5496
5491 5490 5489 5488 5486 5485 5483 5483 5481 5480 5479 5478 5477 5475 5473 5472 5471 5471 5471 5472 5473 5474 5474 5475 5477 5478 5478 5476 5476 5476 5476 5477 5478 5479 5480 5481 5482 5483 5483 5484 5485 5485 5486 5487
5481 5479 5478 5477 5475 5474 5473 5472 5470 5468 5467 5466 5465 5464 5464 5463 5462 5462 5462 5462 5463 5463 5463 5464 5465 5466 5465 5464 5464 5465 5465 5466 5467 5467 5469 5469 5470 5471 5473 5473 5474 5475 5476 5477
5470 5469 5468 5467 5465 5464 5462 5460 5459 5457 5456 5455 5454 5454 5454 5453 5453 5452 5452 5452 5452 5452 5452 5451 5452 5453 5453 5453 5454 5454 5455 5456 5456 5456 5457 5458 5459 5460 5462 5463 5464 5465 5466 5468
5460 5459 5457 5455 5454 5453 5451 5450 5449 5448 5446 5445 5444 5444 5444 5443 5442 5441 5441 5441 5441 5441 5440 5441 5441 5442 5442 5442 5443 5443 5444 5445 5445 5446 5447 5448 5448 5449 5450 5452 5453 5455 5456 5458